Location: Multiple Mirror Telescope
(31.6889°N, 110.8853°W)
Time: 11:05:25
(UTC-07:00)

Hubble Space Telescope - Pass Details

Date: 02 June 2024
Orbit: 511 x 515 km, 28.5° (Epoch: 14 June)

Event Time Altitude Azimuth Distance (km) Brightness Sun altitude
Rises 20:05:22 0° 268° (W) 2,614 5.3 -8.3°
Reaches altitude 10° 20:07:40 10° 262° (W) 1,727 4.1 -8.7°
Maximum altitude 20:11:28 43° 190° (S) 727 1.3 -9.4°
Enters shadow 20:14:37 14° 121° (ESE) 1,497 2.4 -9.9°
